Home   Weather   Dubai   Past weeks

Flag for United Arab Emirates Past Weather in Dubai, Dubai, United Arab Emirates — Yesterday and Last 2 Weeks

Now
81 °F

Passing clouds.


Feels Like: 81 °F
Forecast: 78 / 92 °F
Wind: 8 mph from Southwest

Location: Dubai International Airport

Current Time: Apr 27, 2017 at 3:50:51 am

Latest Report: Apr 27, 2017 at 3:00 am


Visibility: N/A

Pressure: 29.74 "Hg

Humidity: 51%

Dew Point: 61 °F

Location of DubaiLocation

Past Weather in Dubai — Graph

°F

Dubai Temperature Yesterday

Maximum temperature yesterday: 95 °F (at 12:00 pm)
Minimum temperature yesterday: 79 °F (at 5:00 am)
Average temperature yesterday: 87 °F

High & Low Weather Summary for the Past Weeks

 TemperatureHumidityPressure
High102 °F (Apr 12, 12:00 pm)89% (Apr 17, 8:00 am)29.95 "Hg (Apr 17, 8:00 am)
Low72 °F (Apr 21, 5:00 am)6% (Apr 25, 12:00 pm)29.68 "Hg (Apr 15, 3:00 pm)
Average87 °F43%29.78 "Hg
* Reported Apr 12 2:00 am — Apr 27 2:00 am, Dubai, Weather by CustomWeather, © 2017

Note: Actual official high and low records may vary slightly from our data, if they occured in-between our weather recording intervals... More about our weather records

Advertising

Dubai Weather History for the Previous 24 Hours

Scroll right to see more
 ConditionsComfort  
Time TempWeatherWind HumidityBarometerVisibility
2:00 am
Thu, Apr 27
82 °FClear.8 mph48%29.74 "Hg10 mi
1:00 am82 °FPassing clouds.7 mph51%29.77 "HgN/A
12:00 am84 °FClear.6 mph55%29.77 "Hg10 mi
11:00 pm
Wed, Apr 26
84 °FClear.6 mph58%29.77 "Hg10 mi
10:00 pm86 °FClear.7 mph55%29.77 "Hg10 mi
9:00 pm86 °FClear.7 mph55%29.77 "Hg10 mi
8:00 pm86 °FClear.7 mph59%29.77 "Hg10 mi
7:00 pm86 °FPassing clouds.6 mph55%29.77 "HgN/A
6:00 pm88 °FSunny.9 mph52%29.74 "Hg10 mi
5:00 pm88 °FPassing clouds.10 mph49%29.77 "HgN/A
4:00 pm90 °FPassing clouds.15 mph38%29.77 "HgN/A
3:00 pm95 °FPassing clouds.13 mph13%29.77 "HgN/A
2:00 pm95 °FPassing clouds.13 mph13%29.80 "HgN/A
1:00 pm95 °FSunny.12 mph11%29.80 "Hg10 mi
12:00 pm95 °FSunny.10 mph11%29.80 "Hg10 mi
11:00 am93 °FSunny.8 mph12%29.83 "Hg10 mi
10:00 am93 °FSunny.6 mph13%29.83 "Hg10 mi
9:00 am90 °FPassing clouds.5 mph13%29.80 "HgN/A
8:00 am86 °FSunny.2 mph17%29.80 "Hg10 mi
7:00 am81 °FSunny.2 mph21%29.77 "Hg10 mi
6:00 am79 °FPassing clouds.3 mph23%29.74 "HgN/A
5:00 am79 °FClear.2 mph24%29.74 "Hg10 mi
4:00 am81 °FPassing clouds.3 mph23%29.74 "HgN/A
3:00 am82 °FClear.2 mph23%29.74 "Hg10 mi
Weather by CustomWeather, © 2017

See weather overviewHow to use our weather pages